Helicity
110 202 336 214 334 674 748 610 608 568 412 348 417 252 292 300 212 184 167 148 101 73 107 185 162 132 85 91 91 84 91 86 84 80 89 90 80 73
55 83 295 520 448 633 685 638 475 492 526 441 402 369 316 284 228 197 203 169 121 94 186 202 185 159 93 114 101 88 85 85 90 89 91 96 85 83
76 201 90 532 399 670 740 651 521 416 354 392 447 403 352 306 256 251 247 205 160 154 214 210 162 213 174 133 113 85 84 88 97 93 99 102 101 96
120 109 215 573 346 517 652 607 549 457 413 427 436 409 398 327 312 296 264 225 214 204 219 205 182 184 181 145 118 88 87 94 96 105 110 110 113 108
6 89 238 409 402 588 576 631 601 465 369 356 415 407 455 451 325 288 265 280 279 222 212 204 192 178 164 127 112 101 99 104 100 109 120 121 130 122
67 100 104 460 715 475 553 546 553 549 401 337 375 417 458 440 410 398 325 331 331 270 206 187 186 158 130 117 113 109 114 106 100 109 118 128 136 136
34 46 62 282 706 339 627 525 653 567 461 411 399 376 384 436 400 393 351 357 299 364 314 267 244 205 164 135 136 141 132 112 106 113 120 128 137 141
13 15 183 340 455 581 557 500 707 582 587 475 438 378 316 368 406 435 446 374 370 333 358 333 280 234 221 182 135 137 147 109 102 112 122 130 131 140
-2 12 -107 127 656 577 511 552 641 583 458 513 419 331 309 317 368 430 397 401 371 396 389 372 308 244 238 175 146 148 154 127 115 111 126 136 136 143
18 64 -62 166 325 632 495 499 553 535 390 364 358 378 343 334 320 431 476 446 469 380 359 288 332 274 255 198 155 156 154 148 132 119 128 136 141 150
27 6 -194 45 426 356 404 519 507 534 405 251 145 229 334 285 353 392 400 446 496 391 289 260 326 317 247 213 197 146 155 173 149 138 137 141 152 161
23 53 -97 -84 476 647 326 501 486 447 436 236 224 189 221 222 272 349 513 397 401 441 339 325 342 361 237 205 232 208 211 179 169 152 155 158 166 198
10 -30 -298 -128 357 635 296 409 387 475 330 374 342 307 211 225 238 288 326 382 409 355 317 446 389 355 264 171 251 211 252 239 229 191 172 172 160 174
-13 -103 -336 -63 242 439 363 281 349 381 371 271 438 334 333 243 262 303 273 295 280 286 216 308 340 364 314 280 176 209 240 255 294 283 256 203 153 150
67 -66 -120 -287 93 259 420 227 435 453 394 334 302 245 214 285 309 383 385 377 360 255 159 203 296 251 297 293 256 202 252 240 277 315 304 287 249 235
123 116 72 -79 -115 211 108 283 458 440 442 265 258 282 397 338 368 421 444 464 456 394 278 239 265 235 284 279 295 245 221 220 282 292 311 302 303 270
152 62 166 179 117 126 206 326 406 423 339 202 277 378 392 395 396 434 419 433 362 420 405 411 346 341 295 275 278 243 260 271 193 299 357 345 305 260
206 151 190 302 198 124 232 356 393 362 364 368 375 341 404 394 471 465 405 347 363 401 413 435 439 399 335 287 276 283 291 288 252 292 328 347 298 239
194 183 208 220 205 205 249 349 388 370 365 410 406 398 339 405 438 437 372 360 339 355 374 432 369 365 366 309 290 260 305 309 356 319 282 274 270 268
192 210 197 206 228 225 296 375 357 378 357 416 408 382 359 385 408 389 393 343 340 389 406 374 346 334 296 311 354 301 273 342 339 345 383 404 341 287
241 191 178 148 245 265 325 379 368 387 398 417 382 381 341 368 358 371 381 347 360 400 381 334 292 315 386 387 357 332 354 263 301 375 381 419 388 355
255 194 154 169 195 253 302 308 341 331 326 330 354 383 315 336 340 376 392 388 380 376 336 350 393 430 418 339 368 369 416 386 330 279 301 352 332 299
173 224 165 127 182 228 272 293 312 282 260 293 350 352 306 326 337 362 373 392 404 399 405 415 410 364 332 349 384 402 393 402 432 461 441 399 403 322
Wind_Speed
91 91 97 99 86 90 79 72 73 70 67 68 59 52 45 41 40 38 37 30 25 21 19 16 11 6 6 9 13 17 22 26 30 35 39 43 47 52
98 93 86 87 83 92 84 75 75 75 72 64 60 55 49 46 45 43 41 35 30 25 21 20 16 8 2 5 9 14 18 22 27 31 36 41 45 49
98 104 102 82 83 88 88 79 80 75 76 69 62 61 59 55 51 47 44 43 38 29 24 22 17 15 7 1 6 10 14 19 23 28 33 38 42 45
106 107 107 99 94 92 92 82 84 82 70 74 62 58 59 57 51 49 48 46 43 32 26 24 19 15 9 4 2 7 11 15 19 24 29 35 39 42
106 111 117 108 100 102 100 88 82 84 70 75 67 61 58 57 56 52 52 49 45 33 28 24 20 16 11 6 2 4 7 12 16 21 25 30 36 39
111 109 109 110 99 104 100 94 86 83 72 72 70 65 60 57 58 57 57 50 45 37 30 26 24 20 15 11 5 3 4 10 13 17 22 27 32 36
116 119 112 104 105 107 99 93 89 88 72 72 72 70 63 59 61 58 58 53 52 45 39 33 28 23 19 14 10 5 3 8 9 14 18 23 28 32
118 119 123 118 115 109 103 97 90 90 78 76 73 71 68 58 56 59 59 58 57 50 43 40 32 28 24 21 13 8 7 7 7 12 14 19 24 29
119 118 118 115 111 107 100 96 97 88 87 76 72 70 70 60 53 57 65 61 59 53 47 45 38 34 27 19 17 13 10 7 7 9 11 16 20 26
120 119 117 116 107 106 101 105 102 89 84 80 73 68 65 59 57 56 62 61 57 51 48 50 43 40 27 21 21 18 13 9 8 7 9 13 18 22
126 117 116 116 114 99 107 106 96 93 85 82 70 75 69 65 60 54 57 58 58 54 50 48 43 38 31 28 26 22 17 13 10 7 7 9 14 19
129 123 123 116 119 106 106 98 96 92 86 80 74 70 69 64 60 56 53 54 55 60 54 47 38 36 42 38 30 23 19 17 13 9 7 7 10 18
128 121 116 119 119 109 105 98 95 84 83 81 73 70 68 68 64 56 52 51 49 58 43 43 42 38 39 32 29 25 22 18 14 11 8 7 7 12
126 118 116 113 112 107 105 101 91 82 88 87 82 74 67 70 61 57 52 55 55 55 38 39 42 37 35 34 29 20 21 18 16 13 10 7 6 8
116 114 109 109 110 105 108 98 89 88 95 90 88 78 74 67 58 55 47 47 47 44 37 39 39 32 30 31 28 24 17 18 15 13 10 8 8 7
120 112 104 105 108 105 103 97 94 88 96 95 88 76 68 69 67 58 52 49 48 47 41 36 36 31 31 29 26 22 19 18 13 12 9 8 8 6
122 115 109 110 110 104 106 100 94 88 93 94 84 79 72 71 71 62 55 52 53 47 43 37 33 31 31 27 27 23 19 20 10 9 7 9 10 6
116 115 118 111 118 105 102 101 98 89 88 92 86 83 77 73 69 67 58 56 52 47 45 38 33 32 35 36 33 23 21 17 11 8 8 11 12 8
113 120 117 117 117 106 106 102 99 93 84 85 82 82 80 73 71 72 63 56 54 48 45 39 36 35 35 36 34 25 20 15 10 10 10 14 12 6
106 113 115 115 108 113 107 100 94 90 87 85 87 87 83 78 74 74 68 58 52 48 45 42 40 39 38 35 30 27 18 14 13 11 11 16 17 7
99 107 109 109 106 109 105 99 95 92 86 85 87 88 88 79 76 74 72 62 55 49 47 47 43 39 33 25 30 27 23 14 14 13 9 9 11 12
95 97 105 101 91 100 99 99 94 87 84 87 84 87 88 82 80 74 71 64 57 50 47 45 38 37 38 37 33 27 23 19 13 10 11 15 16 19
96 92 97 92 87 90 94 95 92 88 86 82 86 91 91 86 83 79 72 67 58 52 43 37 38 39 38 38 34 27 22 16 14 13 17 19 22 23
Wind_Direction
245 245 243 238 230 219 220 212 212 216 219 225 225 223 218 214 212 216 223 215 204 194 183 167 154 135 85 57 51 43 37 39 38 37 35 33 29 28
245 244 244 242 227 223 214 218 219 217 224 224 222 220 221 223 211 222 224 221 216 218 190 177 164 160 110 49 39 34 36 35 35 35 33 29 27 26
244 241 240 244 227 220 218 217 221 222 225 225 225 221 222 223 221 223 225 227 231 227 198 190 179 167 167 96 21 29 29 29 30 29 29 26 26 25
240 239 237 241 228 222 220 221 220 222 225 220 220 217 220 222 216 223 225 230 234 228 204 197 189 182 181 192 343 10 18 20 24 24 23 22 23 24
239 236 234 238 237 221 220 220 220 223 226 219 223 221 221 220 218 225 228 230 234 221 208 204 203 201 202 212 204 340 12 8 14 18 20 20 20 22
236 234 234 236 238 222 220 218 220 222 222 218 221 220 220 219 221 221 228 228 230 228 221 217 218 223 216 221 226 280 340 351 6 12 16 16 17 20
235 232 233 235 234 228 219 218 219 218 214 214 219 219 221 216 218 224 225 229 236 235 235 237 237 237 242 236 253 228 266 327 355 3 11 13 15 17
233 232 232 234 236 240 217 217 214 212 214 213 218 217 221 215 219 223 223 225 234 240 235 243 240 244 250 255 235 232 267 299 330 349 4 8 11 13
230 228 229 231 232 236 215 215 214 212 217 215 215 217 221 216 215 221 227 225 236 240 237 244 245 248 248 236 219 237 255 264 300 332 354 1 6 10
226 226 227 227 230 234 214 216 217 219 219 222 221 218 221 215 216 223 227 230 239 237 235 248 250 258 249 244 224 237 235 242 278 308 338 351 0 8
224 224 224 225 226 230 215 216 218 221 223 222 226 225 223 217 218 221 225 224 235 239 236 247 252 258 258 257 258 238 225 241 259 275 309 339 355 5
221 222 223 226 227 232 215 214 215 216 216 219 223 221 222 218 216 219 218 222 230 244 244 241 248 253 268 270 260 248 245 239 241 255 278 315 347 359
216 218 220 223 223 225 220 216 215 215 213 216 219 218 219 221 223 224 225 226 226 248 243 233 252 250 266 286 269 250 246 250 252 260 258 292 326 353
217 219 220 222 224 224 227 216 214 212 214 214 217 217 218 222 223 226 230 238 241 249 236 220 253 245 248 271 287 280 261 256 252 262 277 288 300 334
219 217 220 221 221 224 224 213 210 213 214 215 217 218 220 224 223 227 230 237 243 247 241 233 249 245 247 262 276 282 275 268 255 257 270 265 300 335
217 218 219 220 219 221 218 212 213 214 215 215 216 222 225 222 224 225 227 230 239 246 250 243 246 245 255 265 268 272 274 291 250 256 259 288 310 317
213 215 217 216 217 223 216 214 214 216 216 216 219 220 221 222 225 226 228 231 238 238 242 248 249 257 265 264 270 265 264 288 256 266 279 293 303 307
216 215 215 217 215 219 213 212 214 214 216 216 219 220 222 220 224 224 229 232 236 236 239 240 240 249 266 277 282 264 271 275 270 263 276 291 298 311
217 214 214 215 215 220 214 213 215 216 217 218 219 221 221 222 220 223 228 231 236 237 239 237 233 240 249 259 277 274 259 267 261 275 282 300 296 290
216 216 215 215 218 219 214 216 216 218 220 222 223 223 224 224 225 225 226 227 232 237 239 238 236 237 246 254 266 275 273 247 250 258 290 327 339 357
215 214 213 214 220 217 215 216 217 220 221 224 226 225 225 225 226 226 227 228 230 235 236 238 239 247 255 264 271 276 282 263 260 254 259 295 309 320
216 214 213 214 217 214 214 215 217 220 222 224 226 227 225 227 227 225 225 225 229 234 242 246 237 238 248 256 261 264 271 283 281 277 288 297 298 296
216 217 213 214 214 212 214 216 219 220 223 227 229 229 227 229 230 229 228 229 231 235 232 231 234 241 247 255 259 255 258 250 260 275 306 316 327 334